Burley, ID

6:04 AM MDT on July 28, 2016 (GMT -0600)
Burley Municipal

Weather History for KBYI - May, 2013

Change the Weather History Date:

Sunday, May 19, 2013

  Actual Average Record
Temperature  
Mean Temperature 54 °F 55 °F  
Max Temperature 65 °F 68 °F 97 °F (1954)
Min Temperature 42 °F 42 °F 28 °F (2003)
Degree Days  
Heating Degree Days 11 10  
Month to date heating degree days 153 239  
Since 1 July heating degree days 6244 6627  
Cooling Degree Days 0 0  
Month to date cooling degree days 10 0  
Year to date cooling degree days 10 0  
Growing Degree Days 3 (Base 50)    
Moisture  
Dew Point 38 °F    
Average Humidity 57    
Maximum Humidity 82    
Minimum Humidity 31    
Precipitation  
Precipitation T in 0.05 in 0.54 in (1953)
Month to date precipitation 0.21 0.89  
Year to date precipitation 1.88 4.69  
Sea Level Pressure  
Sea Level Pressure 30.05 in    
Wind  
Wind Speed 11 mph (WSW)    
Max Wind Speed 21 mph    
Max Gust Speed 29 mph    
Visibility 10 miles    
Events Rain    
T = Trace of Precipitation, MM = Missing Value Source: NWS Daily Summary

Daily Weather History Graph

Daily Weather History Graph

Search for Another Location

Airport or City:

Trip Planner

Search our weather history database for the weather conditions in past years. The results will help you decide how hot, cold, wet, or windy it might be!

Date:

Astronomy

May. 19, 2013 Rise Set
Actual Time 6:08 AM MDT 8:54 PM MDT
Civil Twilight 5:36 AM MDT 9:27 PM MDT
Nautical Twilight 4:54 AM MDT 10:09 PM MDT
Astronomical Twilight 4:07 AM MDT 10:56 PM MDT
Moon 2:56 PM MDT (5/19) 2:42 AM MDT (5/19)
Length of Visible Light 15h 51m
Length of Day
14h 45m
Waxing Gibbous, 66% of the Moon is Illuminated
May 19
Waxing Gibbous
May 24
Full
May 31
Last Quarter
Jun 8
New
Jun 16
First Quarter

Hourly Weather History & Observations

Time (MDT) Temp. Windchill Dew Point Humidity Pressure Visibility Wind Dir Wind Speed Gust Speed Precip Events Conditions
12:53 AM 45.0 °F 39.7 °F 35.1 °F 68% 29.96 in 10.0 mi SSW 10.4 mph - N/A   Clear
1:53 AM 45.0 °F 39.7 °F 35.1 °F 68% 29.96 in 10.0 mi SW 10.4 mph - N/A   Clear
2:53 AM 46.9 °F - 35.1 °F 63% 29.97 in 10.0 mi WSW 12.7 mph - N/A   Clear
4:53 AM 44.1 °F 36.8 °F 37.0 °F 76% 30.01 in 10.0 mi WSW 16.1 mph 21.9 mph N/A   Partly Cloudy
6:40 AM 42.8 °F 37.0 °F 37.4 °F 81% 30.09 in 10.0 mi WSW 10.4 mph - N/A   Mostly Cloudy
6:53 AM 43.0 °F 36.0 °F 37.9 °F 82% 30.05 in 10.0 mi WSW 13.8 mph - N/A   Overcast
7:21 AM 44.6 °F 37.4 °F 37.4 °F 76% 30.09 in 10.0 mi WSW 16.1 mph 25.3 mph N/A   Mostly Cloudy
7:49 AM 44.6 °F 38.1 °F 37.4 °F 76% 30.11 in 10.0 mi WSW 13.8 mph - N/A   Overcast
7:53 AM 44.1 °F 38.6 °F 37.9 °F 79% 30.06 in 10.0 mi WSW 10.4 mph 21.9 mph N/A   Overcast
8:53 AM 46.0 °F 39.9 °F 37.9 °F 73% 30.08 in 10.0 mi West 13.8 mph 24.2 mph N/A   Overcast
9:53 AM 48.9 °F - 39.0 °F 69% 30.10 in 10.0 mi West 16.1 mph 23.0 mph N/A   Overcast
10:46 AM 50.0 °F - 39.2 °F 66% 30.12 in 10.0 mi West 13.8 mph 23.0 mph N/A   Overcast
10:53 AM 51.1 °F - 39.0 °F 63% 30.09 in 10.0 mi West 17.3 mph 23.0 mph N/A   Overcast
11:53 AM 52.0 °F - 39.0 °F 61% 30.09 in 10.0 mi West 11.5 mph 20.7 mph N/A   Overcast
2:53 PM 64.0 °F - 35.1 °F 34% 30.01 in 10.0 mi WNW 10.4 mph 23.0 mph N/A   Mostly Cloudy
3:53 PM 64.0 °F - 34.0 °F 33% 30.01 in 10.0 mi West 13.8 mph 25.3 mph N/A   Partly Cloudy
4:53 PM 57.0 °F - 39.9 °F 53% 30.04 in 10.0 mi NNE 8.1 mph - N/A   Overcast
5:53 PM 57.9 °F - 39.0 °F 49% 30.03 in 10.0 mi Variable 3.5 mph - 0.00 in   Overcast
6:53 PM 54.0 °F - 43.0 °F 66% 30.05 in 10.0 mi NNW 4.6 mph - 0.00 in Rain Light Rain
7:53 PM 55.9 °F - 39.9 °F 55% 30.05 in 10.0 mi West 6.9 mph - 0.00 in   Overcast
8:53 PM 54.0 °F - 39.9 °F 59% 30.06 in 10.0 mi Calm Calm - N/A   Overcast
10:53 PM 53.1 °F - 37.0 °F 55% 30.06 in 10.0 mi WSW 8.1 mph - N/A   Overcast
11:53 PM 53.1 °F - 36.0 °F 52% 30.06 in 10.0 mi West 11.5 mph - N/A   Overcast